Mount Airy, NC

10:50 AM EST on December 09, 2019 (GMT -0500)
Mount Airy-Surry County

Weather History for KMWK - June, 2019

Change the Weather History Date:

Tuesday, June 11, 2019

  Actual Average (KINT) Record (KINT)
Temperature  
Mean Temperature 70 °F -  
Max Temperature 78 °F 81 °F 95 °F (1993)
Min Temperature 61 °F 63 °F 38 °F (1972)
Cooling Degree Days 4    
Growing Degree Days 20 (Base 50)    
Moisture  
Dew Point 54 °F    
Average Humidity 58    
Maximum Humidity 80    
Minimum Humidity 32    
Precipitation  
Precipitation 0.00 in - - ()
Sea Level Pressure  
Sea Level Pressure 30.10 in    
Wind  
Wind Speed 5 mph ()    
Max Wind Speed 14 mph    
Max Gust Speed 22 mph    
Visibility 10.0 miles    
Events      
Averages and records for this station are not official NWS values.
T = Trace of Precipitation, MM = Missing Value Source: Averaged Metar Reports

Daily Weather History Graph

Daily Weather History Graph

Search for Another Location

Airport or City:

Astronomy

Jun. 11, 2019 Rise Set
Actual Time 6:03 AM EDT 8:40 PM EDT
Civil Twilight 5:33 AM EDT 9:10 PM EDT
Nautical Twilight 4:55 AM EDT 9:48 PM EDT
Astronomical Twilight 4:13 AM EDT 10:30 PM EDT
Moon 2:49 PM EDT (6/11) 2:34 AM EDT (6/11)
Length of Visible Light 15h 37m
Length of Day
14h 36m
Waxing Gibbous, 66% of the Moon is Illuminated
Jun 11
Waxing Gibbous
Jun 17
Full
Jun 25
Last Quarter
Jul 2
New
Jul 9
First Quarter

Hourly Weather History & Observations

Time (EDT) Temp. Dew Point Humidity Pressure Visibility Wind Dir Wind Speed Gust Speed Precip Events Conditions
12:00 AM 73.0 °F 66.0 °F 79% 30.01 in 10.0 mi Calm Calm - N/A   Scattered Clouds
12:20 AM 72.5 °F 66.0 °F 80% 30.02 in 10.0 mi WNW 3.5 mph - N/A   Scattered Clouds
12:40 AM 72.5 °F 65.8 °F 80% 30.02 in 10.0 mi Calm Calm - N/A   Mostly Cloudy
1:00 AM 73.0 °F 66.0 °F 79% 30.02 in 10.0 mi NNW 5.8 mph - N/A   Mostly Cloudy
1:20 AM 72.5 °F 65.5 °F 79% 30.02 in 10.0 mi North 4.6 mph - N/A   Scattered Clouds
1:40 AM 72.5 °F 65.3 °F 78% 30.02 in 10.0 mi North 3.5 mph - N/A   Scattered Clouds
2:00 AM 71.4 °F 64.6 °F 79% 30.02 in 10.0 mi NW 4.6 mph - N/A   Scattered Clouds
2:20 AM 70.7 °F 61.9 °F 74% 30.02 in 10.0 mi NNW 10.4 mph 20.7 mph N/A   Scattered Clouds
2:40 AM 69.8 °F 60.8 °F 73% 30.03 in 10.0 mi NW 6.9 mph - N/A   Clear
3:00 AM 69.3 °F 60.8 °F 74% 30.03 in 10.0 mi NW 6.9 mph - N/A   Scattered Clouds
3:20 AM 68.4 °F 58.3 °F 70% 30.03 in 10.0 mi NW 13.8 mph 19.6 mph N/A   Scattered Clouds
3:40 AM 67.1 °F 57.6 °F 71% 30.04 in 10.0 mi NW 6.9 mph - N/A   Scattered Clouds
4:00 AM 66.7 °F 56.1 °F 69% 30.04 in 10.0 mi NNW 6.9 mph - N/A   Scattered Clouds
4:20 AM 66.2 °F 55.2 °F 68% 30.04 in 10.0 mi NNW 10.4 mph 18.4 mph N/A   Scattered Clouds
4:40 AM 65.5 °F 54.5 °F 68% 30.04 in 10.0 mi NNW 10.4 mph - N/A   Scattered Clouds
5:00 AM 65.3 °F 54.1 °F 67% 30.05 in 10.0 mi NW 10.4 mph 18.4 mph N/A   Scattered Clouds
5:20 AM 64.8 °F 53.6 °F 67% 30.05 in 10.0 mi NW 9.2 mph 19.6 mph N/A   Scattered Clouds
5:40 AM 64.4 °F 53.4 °F 67% 30.06 in 10.0 mi NNW 11.5 mph 18.4 mph N/A   Clear
6:00 AM 63.9 °F 53.4 °F 69% 30.07 in 10.0 mi NW 8.1 mph 17.3 mph N/A   Clear
6:20 AM 63.5 °F 53.1 °F 69% 30.07 in 10.0 mi NNW 5.8 mph 16.1 mph N/A   Clear
6:40 AM 63.5 °F 52.3 °F 67% 30.09 in 10.0 mi North 6.9 mph - N/A   Clear
7:20 AM 63.9 °F 52.3 °F 66% 30.10 in 10.0 mi NNW 6.9 mph - N/A   Clear
7:40 AM 64.0 °F 52.2 °F 65% 30.11 in 10.0 mi NNW 10.4 mph 18.4 mph N/A   Clear
8:00 AM 64.4 °F 52.2 °F 64% 30.12 in 10.0 mi North 12.7 mph 21.9 mph N/A   Clear
8:20 AM 65.3 °F 52.9 °F 64% 30.12 in 10.0 mi NNW 4.6 mph - N/A   Clear
8:40 AM 65.7 °F 53.6 °F 65% 30.13 in 10.0 mi NW 8.1 mph - N/A   Clear
9:00 AM 66.7 °F 51.6 °F 58% 30.13 in 10.0 mi North 9.2 mph - N/A   Clear
9:20 AM 67.3 °F 52.5 °F 59% 30.14 in 10.0 mi NW 3.5 mph - N/A   Clear
9:40 AM 68.9 °F 51.8 °F 54% 30.14 in 10.0 mi NNE 8.1 mph - N/A   Clear
10:00 AM 69.4 °F 51.3 °F 52% 30.15 in 10.0 mi North 6.9 mph - N/A   Clear
10:20 AM 69.8 °F 50.4 °F 50% 30.15 in 10.0 mi North 9.2 mph - N/A   Clear
10:40 AM 69.8 °F 50.0 °F 49% 30.16 in 10.0 mi North 8.1 mph - N/A   Clear
11:00 AM 70.7 °F 50.9 °F 49% 30.16 in 10.0 mi NNW 5.8 mph - N/A   Clear
11:20 AM 71.8 °F 51.1 °F 48% 30.16 in 10.0 mi NW 6.9 mph - N/A   Clear
11:40 AM 72.5 °F 51.4 °F 47% 30.15 in 10.0 mi NW 6.9 mph - N/A   Clear
12:00 PM 72.7 °F 52.5 °F 49% 30.15 in 10.0 mi NW 5.8 mph - N/A   Clear
12:20 PM 73.2 °F 52.5 °F 48% 30.15 in 10.0 mi WNW 6.9 mph - N/A   Clear
12:40 PM 74.7 °F 52.0 °F 45% 30.15 in 10.0 mi North 4.6 mph - N/A   Clear
1:00 PM 76.3 °F 52.7 °F 44% 30.14 in 10.0 mi North 5.8 mph - N/A   Clear
1:20 PM 77.4 °F 47.5 °F 35% 30.14 in 10.0 mi NE 5.8 mph - N/A   Clear
1:40 PM 77.5 °F 47.7 °F 35% 30.14 in 10.0 mi NNW 8.1 mph - N/A   Clear
2:00 PM 78.3 °F 47.3 °F 34% 30.14 in 10.0 mi NNW 6.9 mph - N/A   Clear
2:20 PM 78.8 °F 47.3 °F 33% 30.14 in 10.0 mi NW 6.9 mph - N/A   Clear
2:40 PM 78.3 °F 45.9 °F 32% 30.14 in 10.0 mi NW 8.1 mph - N/A   Clear
3:00 PM 78.1 °F 45.5 °F 32% 30.13 in 10.0 mi NW 5.8 mph - N/A   Clear
3:20 PM 78.3 °F 46.6 °F 33% 30.12 in 10.0 mi North 3.5 mph 17.3 mph N/A   Clear
3:40 PM 78.3 °F 47.3 °F 34% 30.12 in 10.0 mi NW 5.8 mph - N/A   Clear
4:00 PM 78.1 °F 50.4 °F 38% 30.11 in 10.0 mi North 4.6 mph - N/A   Clear
4:20 PM 77.4 °F 51.8 °F 41% 30.11 in 10.0 mi NW 5.8 mph - N/A   Clear
4:40 PM 76.8 °F 51.6 °F 41% 30.12 in 10.0 mi North 5.8 mph - N/A   Clear
5:00 PM 77.5 °F 50.4 °F 38% 30.11 in 10.0 mi NW 9.2 mph - N/A   Clear
5:20 PM 77.9 °F 51.8 °F 40% 30.11 in 10.0 mi NW 4.6 mph - N/A   Clear
5:40 PM 77.5 °F 50.7 °F 39% 30.10 in 10.0 mi NNW 8.1 mph - N/A   Clear
6:00 PM 77.0 °F 51.6 °F 41% 30.10 in 10.0 mi NNE 3.5 mph - N/A   Clear
6:20 PM 75.4 °F 51.6 °F 43% 30.10 in 10.0 mi NNW 3.5 mph - N/A   Clear
6:40 PM 73.9 °F 54.1 °F 50% 30.10 in 10.0 mi North 3.5 mph - N/A   Clear
7:00 PM 74.3 °F 53.2 °F 48% 30.10 in 10.0 mi North 3.5 mph - N/A   Clear
7:20 PM 73.6 °F 55.2 °F 53% 30.11 in 10.0 mi Calm Calm - N/A   Clear
7:40 PM 73.9 °F 54.7 °F 51% 30.12 in 10.0 mi NNE 4.6 mph - N/A   Clear
8:00 PM 73.0 °F 54.0 °F 51% 30.12 in 10.0 mi NE 3.5 mph - N/A   Clear
8:20 PM 72.5 °F 54.0 °F 52% 30.13 in 10.0 mi NE 3.5 mph - N/A   Clear
8:40 PM 70.5 °F 54.0 °F 56% 30.14 in 10.0 mi NE 3.5 mph - N/A   Clear
9:00 PM 68.9 °F 55.0 °F 61% 30.14 in 10.0 mi NE 3.5 mph - N/A   Clear
9:20 PM 66.9 °F 55.6 °F 67% 30.14 in 10.0 mi Calm Calm - N/A   Clear
9:40 PM 65.8 °F 55.8 °F 70% 30.14 in 10.0 mi Calm Calm - N/A   Clear
10:00 PM 64.0 °F 56.3 °F 76% 30.15 in 10.0 mi Calm Calm - N/A   Clear
10:20 PM 64.0 °F 55.6 °F 74% 30.16 in 10.0 mi Calm Calm - N/A   Clear
10:40 PM 63.0 °F 56.1 °F 78% 30.16 in 10.0 mi NNW 3.5 mph - N/A   Clear
11:00 PM 63.5 °F 55.0 °F 74% 30.16 in 10.0 mi Calm Calm - N/A   Clear
11:20 PM 61.7 °F 55.6 °F 80% 30.16 in 10.0 mi Calm Calm - N/A   Clear
11:40 PM 61.7 °F 55.0 °F 79% 30.16 in 10.0 mi Calm Calm - N/A   Clear